N3898R KMLB-

Flight info

Callsign N3898R
Flight time N/A
Altitude VFR
Route SOUTH
Aircraft C172/L-SDE3/L

Departure

Time 2026-05-08 20:57
Airport Melbourne Orlando International Airport (KMLB)

Arrival

Time N/A
Airport -
Time Latitude Longitude Altitude Speed Heading
2026-05-08 20:54 28.10695 -80.65282 30 ft 0 kts 178°
2026-05-08 20:55 28.10673 -80.65285 30 ft 10 kts 214°
2026-05-08 20:55 28.10659 -80.65420 30 ft 27 kts 269°
2026-05-08 20:55 28.10652 -80.65569 30 ft 28 kts 265°
2026-05-08 20:55 28.10639 -80.65830 28 ft 30 kts 266°
2026-05-08 20:56 28.10627 -80.65973 27 ft 18 kts 227°
2026-05-08 20:56 28.10545 -80.65909 27 ft 19 kts 88°
2026-05-08 20:56 28.10560 -80.65602 30 ft 56 kts 88°
2026-05-08 20:56 28.10573 -80.65274 85 ft 68 kts 90°
2026-05-08 20:57 28.10602 -80.64834 250 ft 67 kts 91°
2026-05-08 20:57 28.10457 -80.64449 346 ft 72 kts 114°
2026-05-08 20:57 28.10183 -80.63742 570 ft 74 kts 120°
2026-05-08 20:57 28.09932 -80.63339 819 ft 64 kts 124°
2026-05-08 20:58 28.09730 -80.63105 903 ft 68 kts 143°
2026-05-08 20:58 28.09204 -80.62842 1078 ft 71 kts 148°
2026-05-08 20:58 28.09031 -80.62740 1116 ft 74 kts 146°
2026-05-08 20:58 28.08600 -80.62454 1268 ft 74 kts 146°
2026-05-08 20:59 28.08171 -80.62181 1422 ft 74 kts 147°
2026-05-08 20:59 28.07858 -80.62027 1560 ft 71 kts 153°
2026-05-08 20:59 28.07379 -80.61803 1571 ft 84 kts 148°
2026-05-08 20:59 28.06752 -80.61446 1621 ft 93 kts 150°
2026-05-08 21:00 28.06260 -80.61179 1791 ft 85 kts 152°
2026-05-08 21:00 28.05964 -80.61031 1877 ft 83 kts 152°
2026-05-08 21:00 28.05241 -80.60865 2074 ft 87 kts 184°
2026-05-08 21:00 28.04923 -80.61013 2075 ft 96 kts 206°
2026-05-08 21:01 28.04562 -80.61532 2236 ft 96 kts 233°
2026-05-08 21:01 28.04319 -80.62044 2288 ft 100 kts 235°
2026-05-08 21:01 28.04095 -80.62520 2293 ft 105 kts 234°
2026-05-08 21:01 28.03708 -80.63479 2311 ft 110 kts 253°
2026-05-08 21:02 28.03699 -80.63985 2310 ft 114 kts 272°
2026-05-08 21:02 28.03980 -80.64822 2311 ft 117 kts 296°
2026-05-08 21:02 28.04197 -80.65238 2312 ft 118 kts 298°
2026-05-08 21:02 28.04443 -80.66001 2311 ft 115 kts 275°
2026-05-08 21:03 28.04571 -80.67067 2312 ft 115 kts 272°
2026-05-08 21:03 28.04659 -80.67934 2311 ft 115 kts 271°
2026-05-08 21:03 28.04736 -80.68716 2311 ft 114 kts 271°
2026-05-08 21:03 28.04791 -80.69263 2311 ft 114 kts 271°
2026-05-08 21:04 28.04862 -80.69980 2311 ft 114 kts 271°
2026-05-08 21:04 28.04959 -80.70963 2313 ft 118 kts 271°
2026-05-08 21:04 28.05050 -80.71903 2313 ft 120 kts 271°
2026-05-08 21:04 28.05131 -80.72794 2300 ft 122 kts 271°
2026-05-08 21:05 28.05205 -80.73682 2295 ft 123 kts 271°
2026-05-08 21:05 28.05278 -80.74578 2294 ft 123 kts 271°
2026-05-08 21:05 28.05356 -80.75523 2293 ft 123 kts 271°
2026-05-08 21:05 28.05461 -80.76787 2318 ft 121 kts 272°
2026-05-08 21:06 28.05521 -80.77432 2305 ft 121 kts 272°
2026-05-08 21:06 28.05631 -80.78633 2296 ft 120 kts 272°
2026-05-08 21:06 28.05684 -80.79269 2316 ft 118 kts 271°
2026-05-08 21:06 28.05579 -80.80351 2282 ft 114 kts 235°
2026-05-08 21:07 28.04764 -80.81342 2287 ft 108 kts 218°
2026-05-08 21:07 28.04338 -80.81808 2272 ft 109 kts 217°
2026-05-08 21:07 28.03637 -80.82428 2281 ft 104 kts 196°
2026-05-08 21:07 28.03039 -80.82526 2276 ft 101 kts 176°
2026-05-08 21:08 28.02077 -80.82395 2258 ft 101 kts 166°
2026-05-08 21:08 28.01589 -80.82304 2239 ft 102 kts 167°
2026-05-08 21:08 28.00816 -80.82175 2260 ft 100 kts 168°
2026-05-08 21:08 28.00129 -80.82068 2231 ft 101 kts 168°
2026-05-08 21:09 27.99434 -80.81891 2271 ft 96 kts 148°
2026-05-08 21:09 27.99043 -80.81329 2262 ft 96 kts 122°
2026-05-08 21:09 27.98741 -80.80644 2266 ft 97 kts 107°
2026-05-08 21:09 27.98677 -80.79604 2184 ft 103 kts 92°
2026-05-08 21:10 27.98695 -80.79067 2189 ft 102 kts 92°
2026-05-08 21:10 27.98695 -80.77992 2220 ft 99 kts 94°
2026-05-08 21:10 27.98699 -80.77411 2173 ft 102 kts 93°
2026-05-08 21:10 27.98688 -80.76646 2180 ft 101 kts 94°
2026-05-08 21:11 27.98689 -80.76005 2164 ft 102 kts 95°
2026-05-08 21:11 27.98680 -80.75261 2210 ft 98 kts 94°
2026-05-08 21:11 27.98680 -80.74417 2207 ft 99 kts 94°
2026-05-08 21:11 27.98681 -80.73812 2196 ft 100 kts 93°
2026-05-08 21:12 27.98685 -80.73114 2216 ft 99 kts 93°
2026-05-08 21:12 27.98692 -80.72459 2205 ft 100 kts 94°
2026-05-08 21:12 27.98670 -80.71803 2155 ft 103 kts 96°
2026-05-08 21:12 27.98670 -80.70879 2120 ft 104 kts 92°
2026-05-08 21:13 27.98681 -80.70392 2105 ft 104 kts 92°
2026-05-08 21:13 27.98659 -80.69707 2074 ft 104 kts 98°
2026-05-08 21:13 27.98583 -80.69037 2103 ft 100 kts 100°
2026-05-08 21:13 27.98497 -80.68449 2073 ft 102 kts 103°
2026-05-08 21:14 27.98376 -80.67767 1910 ft 111 kts 103°